FW2189 Weather Reports


time (UTC)temp
C
wind
direction
speed
KPH
gust
KPH
rain 1hr
cm
rain 24hr
cm
rain mn
cm
humidity
%
barometer
mb
20260901140852 15 159 0.0 1.6 0.00 0.00 0.00 64 1010.3
20260901135352 15 159 0.0 1.6 0.00 0.00 0.00 64 1010.3
20260901133851 15 159 1.6 4.8 0.00 0.00 0.00 64 1010.1
20260901133052 15 159 1.6 3.2 0.00 0.00 0.00 63 1010.2
20260901130850 15 159 1.6 4.8 0.00 0.00 0.00 64 1010.2
20260901125350 15 158 0.0 3.2 0.00 0.00 0.00 64 1010.0
20260901123850 15 159 0.0 3.2 0.00 0.00 0.00 64 1009.9
20260901122349 15 182 0.0 3.2 0.00 0.00 0.00 64 1010.1
20260901120849 15 183 0.0 6.4 0.00 0.00 0.00 64 1010.0
20260901115351 15 164 1.6 6.4 0.00 0.00 0.00 64 1010.0
20260901113849 14 171 0.0 8.0 0.00 0.00 0.00 64 1010.0
20260901112348 15 161 3.2 4.8 0.00 0.00 0.00 64 1009.9
20260901110847 14 124 0.0 3.2 0.00 0.00 0.00 65 1009.8
20260901105348 14 124 0.0 1.6 0.00 0.00 0.00 64 1009.7
20260901105251 15 124 1.6 3.2 0.00 0.00 0.00 63 1009.7
20260901102347 15 124 0.0 4.8 0.00 0.00 0.00 63 1009.6
20260901100846 15 134 0.0 3.2 0.00 0.00 0.00 62 1009.6
20260901095346 15 182 1.6 4.8 0.00 0.00 0.00 62 1009.5
20260901093846 15 196 0.0 3.2 0.00 0.00 0.00 62 1009.4
20260901093038 15 202 1.6 4.8 0.00 0.00 0.00 61 1009.3
20260901090845 15 209 1.6 8.0 0.00 0.00 0.00 61 1009.2
20260901090037 15 106 1.6 3.2 0.00 0.00 0.00 62 1009.0
20260901083844 16 159 0.0 3.2 0.00 0.00 0.00 61 1009.1
20260901082344 16 168 1.6 8.0 0.00 0.00 0.00 61 1009.1
20260901080843 16 175 1.6 6.4 0.00 0.00 0.00 60 1009.1
20260901075343 16 179 1.6 6.4 0.00 0.00 0.00 59 1009.0
20260901073843 16 78 1.6 6.4 0.00 0.00 0.00 59 1008.7
20260901072342 17 195 1.6 6.4 0.00 0.00 0.00 58 1008.6
20260901070843 17 164 3.2 8.0 0.00 0.00 0.00 56 1008.5
20260901065342 18 162 3.2 9.7 0.00 0.00 0.00 54 1008.2
20260901063842 18 172 3.2 6.4 0.00 0.00 0.00 52 1008.0
20260901062342 19 158 0.0 0.0 0.00 0.00 0.00 53 1007.7
20260901060841 20 158 0.0 1.6 0.00 0.00 0.00 51 1007.5
20260901055341 20 158 0.0 0.0 0.00 0.00 0.00 51 1007.4
20260901053841 21 158 0.0 0.0 0.00 0.00 0.00 49 1007.2
20260901052340 21 158 0.0 1.6 0.00 0.00 0.00 49 1007.2
20260901050839 21 158 0.0 3.2 0.00 0.00 0.00 47 1007.2
20260901045339 21 158 0.0 1.6 0.00 0.00 0.00 45 1007.1
20260901043839 21 158 0.0 1.6 0.00 0.00 0.00 43 1006.9
20260901042338 22 158 0.0 3.2 0.00 0.00 0.00 42 1006.6
20260901040838 22 158 1.6 3.2 0.00 0.00 0.00 42 1006.5
20260901035337 22 158 0.0 1.6 0.00 0.00 0.00 40 1006.2
20260901033837 23 158 0.0 1.6 0.00 0.00 0.00 38 1005.9
20260901033028 24 158 0.0 1.6 0.00 0.00 0.00 35 1005.8
20260901030836 25 158 0.0 1.6 0.00 0.00 0.00 33 1005.6
20260901030734 26 158 0.0 1.6 0.00 0.00 0.00 31 1005.6
20260901023836 26 158 0.0 3.2 0.00 0.00 0.00 30 1005.6
20260901022336 27 158 3.2 6.4 0.00 0.00 0.00 29 1005.6
20260901020835 27 241 3.2 8.0 0.00 0.00 0.00 28 1005.6
20260901015335 27 217 3.2 6.4 0.00 0.00 0.00 27 1005.5
20260901013834 28 173 3.2 8.0 0.00 0.00 0.00 26 1005.4
20260901012335 28 216 1.6 4.8 0.00 0.00 0.00 22 1005.4
20260901010834 28 196 1.6 6.4 0.00 0.00 0.00 22 1005.5
20260901005334 28 238 1.6 9.7 0.00 0.00 0.00 21 1005.5
20260901003834 28 220 3.2 4.8 0.00 0.00 0.00 20 1005.5
20260901002332 28 230 3.2 8.0 0.00 0.00 0.00 23 1005.6
20260901000833 29 235 3.2 6.4 0.00 0.00 0.00 21 1005.7
20260901000032 29 220 1.6 4.8 0.00 0.00 0.00 22 1005.7
20260831233831 29 226 3.2 4.8 0.00 0.00 0.00 23 1005.8
20260831232331 29 224 1.6 8.0 0.00 0.00 0.00 21 1005.7
20260831230832 30 237 3.2 4.8 0.00 0.00 0.00 20 1005.8
20260831225331 30 200 3.2 8.0 0.00 0.00 0.00 21 1006.1
20260831223831 30 281 1.6 8.0 0.00 0.00 0.00 23 1006.2
20260831222331 29 179 1.6 6.4 0.00 0.00 0.00 25 1006.3
20260831220830 29 58 1.6 6.4 0.00 0.00 0.00 24 1006.4
20260831215330 29 151 3.2 6.4 0.00 0.00 0.00 24 1006.5
20260831213829 28 166 1.6 8.0 0.00 0.00 0.00 24 1006.6
20260831212328 28 214 1.6 4.8 0.00 0.00 0.00 27 1006.9
20260831210829 28 179 3.2 6.4 0.00 0.00 0.00 28 1007.0
20260831205328 27 166 3.2 9.7 0.00 0.00 0.00 27 1007.1
20260831203828 27 158 3.2 6.4 0.00 0.00 0.00 28 1007.3
20260831202328 27 193 3.2 6.4 0.00 0.00 0.00 30 1007.4
20260831200827 26 180 3.2 8.0 0.00 0.00 0.00 31 1007.7
20260831195327 26 221 0.0 6.4 0.00 0.00 0.00 31 1007.9
20260831193826 25 230 0.0 0.0 0.00 0.00 0.00 33 1007.9
20260831192327 24 93 0.0 0.0 0.00 0.00 0.00 33 1008.1
20260831190826 23 255 0.0 3.2 0.00 0.00 0.00 39 1008.4
20260831185325 22 298 1.6 8.0 0.00 0.00 0.00 41 1008.6
20260831183825 21 285 0.0 6.4 0.00 0.00 0.00 43 1008.9
20260831182324 21 141 1.6 6.4 0.00 0.00 0.00 46 1009.1
20260831180824 20 220 1.6 4.8 0.00 0.00 0.00 47 1009.3
20260831180017 19 255 3.2 4.8 0.00 0.00 0.00 49 1009.5
20260831173824 18 320 0.0 4.8 0.00 0.00 0.00 50 1009.6
20260831172323 18 326 1.6 3.2 0.00 0.00 0.00 52 1009.7
20260831170823 17 323 1.6 3.2 0.00 0.00 0.00 53 1009.9
20260831165323 17 317 1.6 3.2 0.00 0.00 0.00 54 1010.0
20260831163822 17 317 1.6 3.2 0.00 0.00 0.00 56 1010.1
20260831163014 16 300 0.0 3.2 0.00 0.00 0.00 55 1010.1
20260831160821 16 298 1.6 4.8 0.00 0.00 0.00 56 1010.3
20260831155319 16 334 0.0 1.6 0.00 0.00 0.00 58 1010.4
20260831153817 15 334 1.6 3.2 0.00 0.00 0.00 59 1010.3
20260831153007 15 303 0.0 4.8 0.00 0.00 0.00 60 1010.4
20260831150817 15 241 0.0 1.6 0.00 0.00 0.00 61 1010.5
20260831145317 14 241 0.0 3.2 0.00 0.00 0.00 62 1010.7
20260831144508 13 241 0.0 1.6 0.00 0.00 0.00 63 1010.6
20260831142316 13 241 0.0 0.0 0.00 0.00 0.00 64 1010.6